This is the latest recevied weather packets stored in our database for station/object K7ZQU-7. If no packets are shown the sender has not sent any weather packets the latest 10 day(s).
| Time | Temp. | Humidity | Pressure | Rain* | Wind** | Luminosity | Snow |
|---|---|---|---|---|---|---|---|
| 1777870242 | 10° C | 57% | 1012.8 hPa | 0 mm | 0 m/s | - | - |
| 1777869943 | 10° C | 57% | 1012.8 hPa | 0 mm | 0 m/s | - | - |
| 1777869345 | 10.56° C | 57% | 1012.8 hPa | 0 mm | 0 m/s | - | - |
| 1777868446 | 11.11° C | 54% | 1012.8 hPa | 0 mm | 0 m/s | - | - |
| 1777868147 | 11.67° C | 53% | 1012.8 hPa | 0 mm | 0 m/s | - | - |
| 1777867848 | 11.67° C | 53% | 1012.8 hPa | 0 mm | 0 m/s | - | - |
| 1777867549 | 12.22° C | 52% | 1012.7 hPa | 0 mm | 0 m/s | - | - |
| 1777867247 | 12.22° C | 51% | 1012.7 hPa | 0 mm | 0 m/s | - | - |
| 1777866948 | 12.78° C | 50% | 1012.7 hPa | 0 mm | 0 m/s | - | - |
| 1777866649 | 12.78° C | 49% | 1012.7 hPa | 0 mm | 0 m/s | - | - |
| 1777865750 | 13.89° C | 46% | 1012.6 hPa | 0 mm | 0 m/s | - | - |
| 1777865451 | 14.44° C | 44% | 1012.5 hPa | 0 mm | 0 m/s | - | - |
| 1777864853 | 15° C | 40% | 1012.5 hPa | 0 mm | 0 m/s | - | - |
| 1777863953 | 16.11° C | 37% | 1012.5 hPa | 0 mm | 0.45 m/s, 90° | - | - |
| 1777863356 | 16.11° C | 36% | 1012.5 hPa | 0 mm | 0 m/s | - | - |
| 1777863057 | 16.67° C | 36% | 1012.5 hPa | 0 mm | 0 m/s | - | - |
| 1777862456 | 17.22° C | 35% | 1012.5 hPa | 0 mm | 0 m/s | - | - |
| 1777862157 | 17.22° C | 34% | 1012.5 hPa | 0 mm | 0.45 m/s, 53° | - | - |
| 1777861858 | 17.22° C | 34% | 1012.5 hPa | 0 mm | 0 m/s | - | - |
| 1777861559 | 17.22° C | 33% | 1012.6 hPa | 0 mm | 0.45 m/s, 4° | - | - |
| 1777861258 | 17.22° C | 33% | 1012.6 hPa | 0 mm | 0 m/s | - | - |
| 1777860959 | 17.22° C | 34% | 1012.6 hPa | 0 mm | 0 m/s | - | - |
| 1777860660 | 17.78° C | 33% | 1012.5 hPa | 0 mm | 0.45 m/s, 6° | - | - |
| 1777859761 | 17.78° C | 32% | 1012.7 hPa | 0 mm | 1.34 m/s, 357° | - | - |
| 1777859462 | 17.78° C | 31% | 1012.6 hPa | 0 mm | 1.34 m/s, 91° | - | - |
* Rain latest hour (hover to see other rain measurements)
** Current wind speed in m/s (hover to see current wind gust speed)